EW7175 Weather Reports


time (UTC)temp
C
wind
direction
speed
KPH
gust
KPH
rain 1hr
cm
rain 24hr
cm
rain mn
cm
humidity
%
barometer
mb
20260504044541 18 162 0.0 0.0 0.00 0.00 0.00 68 1016.8
20260504043039 18 161 0.0 0.0 0.00 0.00 0.00 67 1016.8
20260504041536 18 161 0.0 0.0 0.00 0.00 0.00 65 1016.9
20260504040035 19 162 0.0 0.0 0.00 0.00 0.00 62 1016.9
20260504034540 19 163 0.0 0.0 0.00 0.00 0.00 60 1016.8
20260504033035 20 165 0.0 0.0 0.00 0.00 0.00 59 1017.0
20260504031534 20 171 0.0 0.0 0.00 0.00 0.00 58 1016.9
20260504030040 21 173 0.0 0.0 0.00 0.00 0.00 55 1016.6
20260504024533 21 173 0.0 0.0 0.00 0.00 0.00 54 1016.6
20260504023033 21 207 0.0 0.0 0.00 0.00 0.00 53 1016.5
20260504021534 21 188 0.0 0.0 0.00 0.00 0.00 53 1016.5
20260504020036 21 136 0.0 0.0 0.00 0.00 0.00 52 1016.2
20260504014536 22 183 0.0 0.0 0.00 0.00 0.00 51 1016.3
20260504013034 22 171 0.0 0.0 0.00 0.00 0.00 50 1016.1
20260504011531 22 173 0.0 0.0 0.00 0.00 0.00 52 1015.7
20260504010031 23 173 0.0 0.0 0.00 0.00 0.00 49 1015.9
20260504004530 23 147 0.0 0.0 0.00 0.00 0.00 48 1015.9
20260504003029 24 193 0.0 0.0 0.00 0.00 0.00 45 1016.0
20260504001529 25 150 0.0 4.8 0.00 0.00 0.00 39 1016.0
20260504000027 26 149 1.6 4.8 0.00 0.00 0.00 37 1016.0
20260503234541 26 167 3.2 8.0 0.00 0.00 0.00 35 1016.1
20260503233026 26 155 0.0 8.0 0.00 0.00 0.00 39 1016.1
20260503231527 26 163 1.6 8.0 0.00 0.00 0.00 38 1016.2
20260503230026 26 152 1.6 9.7 0.00 0.00 0.00 37 1016.2
20260503224523 27 221 3.2 8.0 0.00 0.00 0.00 35 1016.4
20260503223021 27 116 1.6 11.3 0.00 0.00 0.00 36 1016.4
20260503221522 27 107 0.0 0.0 0.00 0.00 0.00 35 1016.7
20260503220036 27 209 0.0 0.0 0.00 0.00 0.00 35 1016.7
20260503214514 27 173 0.0 0.0 0.00 0.00 0.00 34 1016.7
20260503213011 27 153 0.0 0.0 0.00 0.00 0.00 35 1017.2
20260503211505 28 146 0.0 0.0 0.00 0.00 0.00 36 1017.4
20260503210005 28 192 0.0 0.0 0.00 0.00 0.00 33 1017.5
20260503204503 28 165 0.0 0.0 0.00 0.00 0.00 34 1017.8
20260503203104 28 135 0.0 0.0 0.00 0.00 0.00 36 1018.1
20260503201555 27 121 0.0 0.0 0.00 0.00 0.00 36 1018.3
20260503200056 27 173 0.0 0.0 0.00 0.00 0.00 37 1018.6
20260503194551 28 209 0.0 0.0 0.00 0.00 0.00 34 1018.8
20260503193053 27 174 0.0 0.0 0.00 0.00 0.00 36 1019.0
20260503191548 27 249 0.0 0.0 0.00 0.00 0.00 34 1019.3
20260503190047 28 28 0.0 0.0 0.00 0.00 0.00 35 1019.4
20260503184555 27 118 0.0 0.0 0.00 0.00 0.00 38 1019.6
20260503183054 27 186 0.0 0.0 0.00 0.00 0.00 38 1019.8
20260503181540 26 176 0.0 0.0 0.00 0.00 0.00 40 1020.1
20260503180039 26 166 0.0 0.0 0.00 0.00 0.00 37 1020.4
20260503174539 26 179 0.0 0.0 0.00 0.00 0.00 37 1020.7
20260503173040 27 177 0.0 0.0 0.00 0.00 0.00 40 1021.0
20260503171535 26 188 0.0 0.0 0.00 0.00 0.00 39 1021.3
20260503081518 14 309 0.0 0.0 0.00 0.00 0.00 93 1019.3
20260503071511 14 309 0.0 0.0 0.00 0.00 0.00 92 1019.3